Regional Weather Roundup
Issued by NWS Little Rock, AR

Home | Current Version | Previous Version | Graphics & Text | Print | Product List | Glossary On
Versions: 1 2 3 4 5 6 7 8 9 10 11 12 13 14 15 16 17 18 19 20 21 22 23 24 25 26 27 28 29 30 31 32 33 34 35 36 37 38 39 40 41 42 43 44 45 46 47 48 49
000
ASUS44 KLZK 202005
RWRLZK

WEATHER ROUNDUP FOR ARKANSAS
NATIONAL WEATHER SERVICE LITTLE ROCK AR
300 PM CDT WED SEP 20 2017

NOTE: "FAIR" INDICATES FEW OR NO CLOUDS BELOW 12,000 FEET WITH NO
SIGNIFICANT WEATHER AND/OR OBSTRUCTIONS TO VISIBILITY.

ARZ001-003-010-029-202100-
NORTHWEST ARKANSAS

CITY           SKY/WX    TMP DP  RH WIND       PRES   REMARKS
FAYETTEVILLE   MOSUNNY   89  72  56 S10G22    29.90F HX  96
FORT SMITH     MOSUNNY   96  69  41 W14       29.84F HX 102
HARRISON       PTSUNNY   91  69  48 S14       29.92F HX  96
BENTONVILLE    SUNNY     90  71  53 S10       29.91F HX  96
ROGERS         SUNNY     91  71  51 S14       29.90F HX  97
SILOAM SPGS    SUNNY     91  71  51 S15       29.88F HX  97
HIGHFILL       SUNNY     91  71  51 S14       29.89F HX  97
SPRINGDALE     MOSUNNY   90  70  51 S12G18    29.92F HX  95
$$

ARZ004-005-016-202100-
NORTH CENTRAL ARKANSAS

CITY           SKY/WX    TMP DP  RH WIND       PRES   REMARKS
BATESVILLE     MOSUNNY  N/A N/A N/A S12G18    29.92F
FLIPPIN        MOSUNNY   93  70  46 VRB7G16   29.89F HX  99
MTN HOME       MOSUNNY   92  69  47 VRB7      29.90S HX  97
$$

ARZ040-041-202100-
WEST CENTRAL ARKANSAS

CITY           SKY/WX    TMP DP  RH WIND       PRES   REMARKS
MENA           MOSUNNY   91  72  52 S8        29.92F HX  98
MOUNT IDA      SUNNY     91  65  41 MISG      29.90F HX  93
$$

ARZ009-017-025-026-028-202100-
NORTHEAST ARKANSAS

CITY           SKY/WX    TMP DP  RH WIND       PRES   REMARKS
CORNING        FAIR      91  75  59 SW14G20   29.92F HX 102
JONESBORO      SUNNY     92  73  53 S12       29.93F HX 100
NEWPORT        SUNNY     92  70  48 S17       29.92F HX  97
BLYTHEVILLE    MOSUNNY   88  74  63 SW9       29.94F HX  96
NW BLYTHEVILLE MOSUNNY   93  72  49 SW9G17    29.93F HX 100
$$

ARZ022-023-033-042-044-202100-
CENTRAL ARKANSAS

CITY           SKY/WX    TMP DP  RH WIND       PRES   REMARKS
LITTLE ROCK    MOSUNNY   91  72  53 S13G20    29.92F HX  98
N LITTLE ROCK    N/A     91  72  52 S8G16     29.91F HX  98
JACKSONVILLE   SUNNY     93  72  50 S13G21    29.91F HX 101
CONWAY           N/A     93  72  49 S13       29.88F HX 100
SEARCY         SUNNY     93  74  53 S12       29.93F HX 103
HOT SPRINGS    PTSUNNY   91  71  51 S10       29.92F HX  97
RUSSELLVILLE   MOSUNNY   93  69  45 S8G16     29.88F HX  98
CLINTON        FAIR      91  73  55 S8G15     29.90F HAZE    HX 100
$$

ARZ036-202100-
EAST ARKANSAS

CITY           SKY/WX    TMP DP  RH WIND       PRES   REMARKS
WEST MEMPHIS   MOSUNNY   90  74  59 S9        29.93F HX  99
$$

ARZ050-053-066-070-073-202100-
SOUTHWEST ARKANSAS

CITY           SKY/WX    TMP DP  RH WIND       PRES   REMARKS
ARKADELPHIA    MOCLDY    90  74  59 S9        29.91F HX  99
CAMDEN         PTSUNNY   93  72  49 SW9G17    29.92F HX 100
TEXARKANA      SUNNY     92  70  48 S13       29.91F HX  97
EL DORADO      MOSUNNY   91  73  55 SW10      29.94F HX  99
DE QUEEN       MOSUNNY   90  74  59 VRB6      29.87F HX  99
$$

ARZ056-057-069-202100-
SOUTHEAST ARKANSAS

CITY           SKY/WX    TMP DP  RH WIND       PRES   REMARKS
PINE BLUFF     MOSUNNY   89  73  59 S13       29.93F HX  97
STUTTGART      SUNNY     91  71  51 S14G20    29.93F HX  97
MONTICELLO     CLOUDY    88  72  58 S8        29.95F HX  94

$$






USA.gov is the U.S. government's official web portal to all federal, state and local government web resources and services.